Location: Aufkirchen
(47.9603°N, 11.3653°E)
Time: 17:29:24
(UTC+01:00)

Transit 4A - Pass Details

Date: 28 November 2020
Orbit: 864 x 980 km, 66.8° (Epoch: 26 January)

Event Time Altitude Azimuth Distance (km) Brightness Sun altitude
Rises 15:54:16 0° 326° (NW) 3,689 11.0 3.4°
Reaches altitude 10° 15:56:59 10° 332° (NNW) 2,733 10.3 3.1°
Maximum altitude 16:03:08 47° 46° (NE) 1,268 8.3 2.2°
Drops below altitude 10° 16:09:07 10° 119° (ESE) 2,666 10.1 1.4°
Sets 16:11:44 0° 125° (SE) 3,591 10.8 1.1°
